Location: Dos Palmas
(32.4468°N, 116.8732°W)
Time: 00:51:54
(UTC+00:00)

SJ-6B - Pass Details

Date: 20 June 2021
Orbit: 508 x 581 km, 97.6° (Epoch: 27 July)

Event Time Altitude Azimuth Distance (km) Brightness Sun altitude
Exits shadow 03:47:30 - 170° (S) 2,374 5.6 -9.7°
Reaches altitude 10° 03:48:41 10° 171° (S) 1,885 5.1 -9.9°
Maximum altitude 03:52:46 79° 258° (WSW) 589 3.0 -10.6°
Drops below altitude 10° 03:56:51 10° 346° (NNW) 1,873 6.3 -11.3°
Sets 03:58:59 0° 347° (NNW) 2,764 7.3 -11.7°
